map of BJV home
Great Circle Mapper logo
BJV - Airport
Location
City:  Bodrum, Turkey
Name:Milas
ICAO / IATA:LTFE / BJV

Details
Type:Airport (Aerodrome, Airfield)
Use:Public/Civil, International (customs port of entry)
Latitude:3715'02"N (37.250611)
Longitude:2739'52"E (27.664311)
Datum:WGS 1984
Elevation:21 ft (6 m)
Runways:1
Longest:9842 × 148 ft (3000 × 45 m), paved

Time
Time Zone:UTC+2 (DST+3)
Local Time:

Weather
METAR:LTFE 210120Z 09001KT CAVOK 10/M00 Q1014 NOSIG RMK RWY10 /////KT
TAF:LTFE 200440Z 2006/2106 02012KT CAVOK PROB40 2011/2014 28012KT FEW035
BECMG 2016/2018 VRB02KT

Related Locations
Nearby:
Farthest:NTAV: 11469 mi / 18458 km
Raivavae, Tubuai Islands, Austral Islands, PF

Find:

   beyond  
but within

Other Information
Maps:
NOTAMs:
Links:
Sources:

  
flag of Turkey   

Sectional Chart

Flight Planning
at skyvector.com

Satellite Image

Google Maps Satellite View

 

Copyright © 2004-2014 Karl L. Swartz. All rights reserved.
The Great Circle Mapper name and logo are trademarks of the Great Circle Mapper.
All other trademarks mentioned herein belong to their respective owners.
Please see credits for attibutions and further copyright information.

  Follow gcmap on Facebook Follow gcmap on Twitter

hCard Microformat

Geo Microformat